Iowa City, IA

7:16 AM CDT on July 23, 2017 (GMT -0500)
Iowa City Municipal

Weather History for KIOW - January, 2014

Change the Weather History Date:

Sunday, January 19, 2014

  Actual Average Record
Temperature  
Mean Temperature 27 °F 22 °F  
Max Temperature 44 °F 30 °F 55 °F (2006)
Min Temperature 10 °F 14 °F -17 °F (1985)
Degree Days  
Heating Degree Days 38 43  
Month to date heating degree days 934 817  
Since 1 July heating degree days 3724 3356  
Cooling Degree Days 0 0  
Month to date cooling degree days 0 0  
Year to date cooling degree days 0 0  
Moisture  
Dew Point 22 °F    
Average Humidity 75    
Maximum Humidity 91    
Minimum Humidity 58    
Precipitation  
Precipitation 0.00 in 0.03 in 0.89 in (1988)
Month to date precipitation 0.24 0.40  
Year to date precipitation 0.24 0.40  
Sea Level Pressure  
Sea Level Pressure 29.77 in    
Wind  
Wind Speed 11 mph (WSW)    
Max Wind Speed 23 mph    
Max Gust Speed 31 mph    
Visibility 10 miles    
Events      
T = Trace of Precipitation, MM = Missing Value Source: NWS Daily Summary

Daily Weather History Graph

Daily Weather History Graph

Search for Another Location

Airport or City:

Trip Planner

Search our weather history database for the weather conditions in past years. The results will help you decide how hot, cold, wet, or windy it might be!

Date:

Astronomy

Jan. 19, 2014 Rise Set
Actual Time 7:28 AM CST 5:05 PM CST
Civil Twilight 6:58 AM CST 5:36 PM CST
Nautical Twilight 6:24 AM CST 6:10 PM CST
Astronomical Twilight 5:51 AM CST 6:43 PM CST
Moon 8:47 PM CST (1/19) 8:55 AM CST (1/19)
Length of Visible Light 10h 37m
Length of Day
9h 37m
Waning Gibbous, 89% of the Moon is Illuminated
Jan 19
Waning Gibbous
Jan 23
Last Quarter
Jan 30
New
Feb 6
First Quarter
Feb 14
Full

Hourly Weather History & Observations

Time (CST) Temp. Windchill Dew Point Humidity Pressure Visibility Wind Dir Wind Speed Gust Speed Precip Events Conditions
12:52 AM 10.9 °F -2.6 °F 6.1 °F 81% 30.00 in 10.0 mi West 10.4 mph - N/A   Clear
1:52 AM 12.9 °F 3.8 °F 9.0 °F 84% 29.98 in 10.0 mi WSW 5.8 mph - N/A   Clear
2:52 AM 14.0 °F 5.1 °F 10.0 °F 84% 29.96 in 10.0 mi SW 5.8 mph - N/A   Clear
3:52 AM 16.0 °F 5.3 °F 12.0 °F 84% 29.93 in 10.0 mi WSW 8.1 mph - N/A   Clear
4:52 AM 16.0 °F 3.6 °F 12.0 °F 84% 29.92 in 10.0 mi WSW 10.4 mph - N/A   Clear
5:52 AM 17.1 °F 6.6 °F 12.9 °F 84% 29.90 in 10.0 mi WSW 8.1 mph - N/A   Clear
6:52 AM 17.1 °F 5.8 °F 12.9 °F 84% 29.86 in 10.0 mi SW 9.2 mph - N/A   Clear
7:52 AM 21.0 °F 11.4 °F 16.0 °F 81% 29.84 in 10.0 mi SW 8.1 mph - N/A   Clear
8:52 AM 24.1 °F 13.7 °F 18.0 °F 77% 29.82 in 10.0 mi SW 10.4 mph 18.4 mph N/A   Clear
9:52 AM 28.0 °F 17.0 °F 21.0 °F 75% 29.80 in 10.0 mi SW 13.8 mph 24.2 mph N/A   Clear
10:52 AM 33.1 °F 23.9 °F 23.0 °F 66% 29.76 in 10.0 mi SW 12.7 mph 20.7 mph N/A   Clear
11:52 AM 37.0 °F 28.5 °F 26.1 °F 65% 29.73 in 10.0 mi SW 13.8 mph - N/A   Clear
12:52 PM 39.0 °F 32.8 °F 28.0 °F 65% 29.72 in 10.0 mi WSW 9.2 mph - N/A   Clear
1:52 PM 39.9 °F 32.5 °F 28.9 °F 65% 29.65 in 10.0 mi SW 12.7 mph - N/A   Clear
2:52 PM 43.0 °F 36.8 °F 30.0 °F 60% 29.62 in 10.0 mi SW 11.5 mph - N/A   Clear
3:52 PM 44.1 °F 39.0 °F 30.9 °F 60% 29.63 in 10.0 mi WSW 9.2 mph - N/A   Clear
4:52 PM 41.0 °F 35.8 °F 30.0 °F 65% 29.62 in 10.0 mi SW 8.1 mph - N/A   Clear
5:52 PM 39.0 °F 34.8 °F 30.0 °F 70% 29.63 in 10.0 mi WSW 5.8 mph - N/A   Clear
6:52 PM 39.9 °F 32.5 °F 30.0 °F 68% 29.63 in 10.0 mi WSW 12.7 mph - N/A   Clear
7:52 PM 41.0 °F 33.9 °F 30.0 °F 65% 29.66 in 10.0 mi West 12.7 mph - N/A   Clear
8:52 PM 39.9 °F 32.9 °F 30.0 °F 68% 29.68 in 10.0 mi WNW 11.5 mph - N/A   Clear
9:52 PM 41.0 °F 31.4 °F 30.0 °F 65% 29.71 in 10.0 mi WNW 21.9 mph 31.1 mph N/A   Clear
10:52 PM 39.0 °F 31.0 °F 30.0 °F 70% 29.75 in 10.0 mi NW 13.8 mph 27.6 mph N/A   Clear
11:52 PM 36.0 °F 26.7 °F 28.9 °F 76% 29.77 in 10.0 mi NW 15.0 mph 24.2 mph N/A   Partly Cloudy